156  
ASUS43 KIWX 242100  
RWRIWX  
 
KIWX WEATHER ROUNDUP  
NATIONAL WEATHER SERVICE NORTHERN INDIANA  
500 PM EDT MON APR 24 2017  
 
NOTE: "FAIR" INDICATES FEW OR NO CLOUDS BELOW 12,000 FEET WITH NO  
SIGNIFICANT WEATHER AND/OR S TO VISIBILITY
.  
 
* THESE STATIONS ARE NOT UNDER NWS QUALITY CONTROL. THEY ALSO MAY NOT  
REPORT WEATHER SUCH AS PRECIPITATION OR FOG.
 
 
INZ001>027-242200-  
NORTHERN INDIANA  
 
CITY SKY/WX TMP DP RH WIND PRES REMARKS
 
GARY* PTSUNNY 66 32 28 E12 29.87F  
KNOX* SUNNY N/A N/A N/A E13 29.86F  
SOUTH BEND MOSUNNY 72 34 24 E13 29.88F  
GOSHEN SUNNY 71 35 26 E16G23 29.88F  
MONTICELLO* SUNNY 73 30 20 E8 29.84F  
ANGOLA* SUNNY 70 36 28 E13 29.91F  
FORT WAYNE PTSUNNY 72 36 26 E17G24 29.88F  
PERU/GRISSOM SUNNY 73 36 25 NE17 29.84F  
 

 
INZ028>050-242200-  
CENTRAL INDIANA  
 
CITY SKY/WX TMP DP RH WIND PRES REMARKS
 
KOKOMO* SUNNY 73 37 27 E16 29.85F  
MUNCIE* SUNNY 77 32 19 NE16 29.83F  
INDIANAPOLIS PTSUNNY 75 40 28 E16 29.81F  
 

 
MIZ043>046-050>051-056>058-064>065-071>073-077>080-242200-  
SOUTHWEST LOWER MICHIGAN  
 
CITY SKY/WX TMP DP RH WIND PRES REMARKS
 
BATTLE CREEK SUNNY 71 28 20 SE9 29.92F  
BENTON HARBOR SUNNY 74 26 16 SE10G18 29.87F  
COLDWATER* SUNNY 69 33 26 E10G18 29.91F  
HILLSDALE* SUNNY 68 34 28 E14 29.92F  
HOLLAND CLOUDY 72 33 24 SE15 29.89F  
GRAND RAPIDS CLOUDY 71 35 26 E15G21 29.91F  
KALAMAZOO SUNNY 73 28 18 SE10 29.90F  
STURGIS* SUNNY 71 34 25 E9G23 29.89F  
THREE RIVERS* FAIR 70 32 24 SE10G18 29.90F  
 

 
OHZ001>008-015>018-024>025-242200-  
NORTHWEST OHIO  
 
CITY SKY/WX TMP DP RH WIND PRES REMARKS
 
DEFIANCE SUNNY 68 36 30 E17 29.90F  
FINDLAY SUNNY 71 35 26 NE17 29.88F  
TOLEDO EXPRESS SUNNY 65 37 35 NE17 29.93F  
TOLEDO METCALF SUNNY 62 42 47 NE15G23 29.95F  
LIMA SUNNY 73 40 30 NE16G22 29.86F  
 

 
AND FOR LAKE MICHIGAN COASTAL AND OPEN LAKE BUOY OBSERVATIONS  
 
STATION/POSITION TEMP WIND PRES VSBY WAVE
 
AIR SEA DIR/SP/G HT/PER  
(F) (DEG/KT/KT) (MB) (MI) (FT/S)  
CALUMET HARBOR 58 30/ 8/ 10 1011.0F  
MICHIGAN CITY 54 20/ 12/ 15 N/A  
BURNS HARBOR 56 80/ 6/ 10 1011.9F  
SOUTH LAKE BUOY 47 43 30/ 4/ 4 1013.7 1/ 3  
4 MI NW BRIDGMAN 56 53 40/ 6/ 8 1011.8F 2/ 2  
 

 

 
 
 
CLICK HERE TO GO TO PREVIOUS BULLETINS.

The Nexlab IN Page
The Nexlab OH Page
The Nexlab MI Page Main Text Page